Wind_Speed
16 19 20 20 19 18 18 19 19 18 17 18 18 18 19 20 20 20 20 20 19 17 17 16 16 16 17 17 17 16 15 14 14 15 16 16 16 16 16 15 15 15 16 16 15 14 14 14 13 13 14 14 13 12 11 10 10 11 10 9 9 8 7 7 7 8 8 9 9 10 10 11 11 12 13 13 14 14 15 15 15 15 15 15 16
16 19 20 19 19 18 18 18 19 19 18 18 19 19 20 20 20 20 19 18 17 17 16 15 15 16 17 17 16 16 16 15 15 16 16 16 16 16 16 15 15 16 16 15 15 15 15 14 14 14 15 15 14 13 12 11 10 10 10 10 8 8 8 8 8 8 9 11 11 11 11 12 12 13 13 14 14 14 14 14 13 14 15 15 16
15 18 20 20 19 19 19 19 20 20 20 19 19 19 19 19 19 19 18 18 17 17 15 14 15 15 17 17 17 17 17 17 17 17 16 16 16 16 16 15 15 15 15 15 15 15 15 14 14 15 15 15 13 13 12 11 10 9 10 9 9 9 9 9 9 10 11 11 12 12 12 12 13 13 14 15 15 15 14 14 13 13 14 14 15
16 18 20 21 20 20 21 20 20 21 20 20 20 19 19 19 19 19 18 18 18 17 16 15 15 15 16 17 18 19 19 19 19 18 17 17 17 16 16 15 15 15 16 16 16 16 16 15 15 15 15 14 13 13 13 12 11 11 10 10 10 10 10 10 11 12 12 12 12 12 13 13 14 14 15 15 15 15 15 15 15 14 14 14 15
18 18 19 21 21 21 21 21 21 21 20 20 19 19 18 18 19 19 19 19 18 18 18 17 16 16 16 16 17 18 19 19 20 19 19 18 18 17 17 16 16 16 17 16 16 16 16 16 15 15 15 14 14 14 13 12 13 13 12 11 11 11 11 11 12 12 12 12 13 13 14 15 15 15 15 15 16 16 16 16 15 15 15 15 15
19 19 19 20 21 21 21 21 21 21 20 20 19 18 18 19 19 19 19 19 19 19 19 18 18 18 18 17 17 17 17 18 19 20 20 19 19 18 18 18 18 18 18 17 17 17 16 16 16 15 15 14 13 13 13 13 14 14 13 13 13 13 12 13 13 13 13 14 14 15 15 15 16 16 16 16 17 17 16 15 15 15 16 16 16
21 20 20 20 20 20 21 20 20 20 20 19 19 18 18 19 19 19 19 19 20 20 19 20 20 20 20 19 19 18 17 17 18 19 19 19 19 19 19 19 19 18 18 17 17 17 16 16 16 15 14 14 14 14 14 14 14 14 14 14 14 14 14 14 14 14 15 15 16 16 15 16 16 17 17 18 18 17 16 16 16 16 16 16 16
21 21 21 20 20 20 20 20 19 19 19 19 19 18 18 19 19 18 19 19 19 19 19 19 19 20 21 21 20 20 19 18 17 18 18 18 18 19 20 20 19 18 17 17 17 17 16 16 15 15 14 14 15 15 15 15 15 15 14 14 15 16 16 16 16 16 17 17 17 17 16 16 17 18 18 18 18 18 17 17 17 18 18 17 16
22 22 22 21 20 20 20 20 20 20 20 20 20 19 19 19 19 19 20 19 19 19 18 18 18 18 19 21 21 21 21 21 20 19 19 19 19 19 20 20 20 18 17 17 16 16 15 15 15 14 14 15 16 16 16 16 16 16 15 15 16 17 17 17 17 17 17 18 18 18 17 17 17 18 18 18 18 18 18 18 19 19 19 18 18
22 23 23 22 22 21 21 22 22 22 21 21 22 21 21 21 20 21 21 20 20 19 18 18 18 18 17 19 20 20 21 22 21 21 20 20 20 21 21 21 20 19 18 17 16 15 15 15 14 14 15 16 16 17 17 16 16 16 16 16 17 18 18 18 17 17 17 18 18 19 18 17 18 18 18 18 18 19 19 20 19 19 19 19 20
20 21 22 22 22 22 22 23 23 24 23 23 23 24 23 23 23 23 22 21 21 21 21 21 20 19 19 19 20 19 19 20 20 20 20 20 21 21 21 20 19 19 19 18 17 16 15 15 16 16 16 16 17 18 17 17 17 17 17 18 18 19 19 18 17 17 18 19 19 19 19 18 18 18 18 18 19 19 20 21 20 20 20 20 21
20 20 21 22 23 22 23 24 24 24 24 25 25 25 26 26 25 25 25 24 23 24 24 23 22 21 21 22 22 21 20 20 19 19 19 19 20 20 20 20 19 18 18 18 17 17 17 17 17 17 17 17 18 19 19 19 19 19 19 19 19 18 19 19 19 19 20 20 20 20 19 19 19 19 19 19 19 19 20 21 21 21 21 20 21
23 22 22 23 23 22 23 23 24 25 25 26 27 27 27 28 28 27 26 26 26 26 26 26 25 24 24 24 24 23 22 21 20 20 19 19 20 20 20 20 19 18 18 19 19 19 18 18 18 18 19 19 20 20 19 19 20 21 21 20 20 21 21 21 21 21 21 21 21 20 20 20 20 20 20 20 20 21 21 21 21 21 21 21 20
25 25 25 25 25 24 24 24 25 26 27 28 28 29 29 29 29 29 28 28 28 28 27 27 27 27 26 25 25 25 25 24 22 21 21 20 20 21 20 20 20 19 20 20 20 20 20 20 20 20 21 21 21 20 20 21 22 22 22 22 23 23 23 23 23 23 22 22 22 21 21 21 21 21 21 21 22 22 23 22 21 20 20 20 20
27 27 27 27 27 27 27 26 25 27 28 29 30 30 30 30 30 30 30 30 30 29 29 28 28 28 28 26 26 26 26 26 25 24 23 22 22 23 22 21 21 21 21 21 22 21 21 21 21 21 21 21 21 22 23 24 24 24 24 24 25 25 25 24 24 24 24 24 23 22 22 23 23 22 22 22 23 23 23 23 20 19 19 19 20
25 27 28 28 29 30 30 29 28 28 29 31 32 32 32 32 32 31 31 31 30 30 30 29 29 29 29 28 27 27 27 26 26 25 24 24 25 25 24 23 23 23 23 23 23 23 22 22 22 22 22 22 22 23 25 26 26 26 26 26 26 26 26 25 25 25 25 25 25 24 24 24 23 23 22 23 23 23 23 22 21 19 19 20 21
23 25 26 27 28 30 31 32 32 32 33 34 35 35 34 34 34 34 34 33 33 32 31 31 31 31 30 29 28 27 27 27 27 26 26 26 26 25 25 25 25 25 25 25 25 24 24 23 23 23 23 23 23 24 26 27 27 27 28 27 27 27 27 27 26 25 26 26 26 25 25 25 24 23 23 23 23 23 23 22 21 20 21 21 21
22 24 25 26 27 28 29 31 32 34 36 37 38 37 37 38 38 39 38 37 36 35 33 33 33 32 32 31 30 28 27 27 27 27 27 27 27 26 26 26 25 25 25 26 26 25 25 25 25 25 24 24 24 26 28 28 29 28 28 28 28 29 28 27 26 26 27 26 26 26 25 25 24 24 24 24 23 22 21 21 22 22 22 21 20
23 24 26 27 27 28 28 29 30 32 35 38 40 40 40 41 42 42 41 39 38 38 37 36 36 35 34 33 32 31 30 28 28 28 29 29 29 29 29 28 28 27 27 27 27 27 27 27 26 25 25 25 26 28 29 30 30 29 29 29 29 29 28 28 29 29 27 26 26 25 25 26 27 26 25 24 22 20 20 20 21 21 20 19 19
25 24 26 27 27 27 27 28 29 31 33 36 39 41 43 44 44 43 42 41 41 40 40 40 39 38 37 36 35 33 33 32 31 30 30 30 30 31 32 31 30 30 29 30 30 29 29 28 28 27 27 27 28 29 30 31 30 30 30 30 30 29 30 31 30 29 28 27 24 24 27 29 27 23 22 21 20 19 18 18 18 18 18 17 16
27 27 27 28 28 28 27 28 29 31 33 35 37 40 43 45 46 46 45 45 45 44 44 45 44 42 40 39 38 35 34 33 33 32 31 31 32 33 34 33 32 31 31 31 31 31 30 29 28 28 28 28 29 30 31 31 30 30 30 30 31 31 31 30 28 28 28 25 24 26 27 24 18 15 17 18 18 18 17 16 17 17 16 15 12
27 29 29 30 30 30 29 29 30 31 33 35 38 40 42 43 45 47 48 49 49 49 48 47 46 43 41 40 40 38 35 34 33 33 33 33 34 35 35 34 33 33 33 33 32 31 30 29 28 28 29 29 29 31 31 31 30 30 30 30 32 32 29 28 29 28 25 23 25 26 22 15 11 13 15 16 15 15 15 15 16 15 13 11 9
26 28 31 32 32 32 31 31 32 32 33 33 36 38 41 43 44 46 48 50 51 51 49 46 45 44 42 42 42 40 38 36 34 34 35 35 35 35 35 35 34 34 34 34 33 32 31 30 29 30 30 31 31 31 31 31 30 31 30 30 31 30 28 29 29 24 22 24 24 20 16 14 14 13 13 13 14 13 13 13 13 11 10 9 8
26 28 30 32 33 33 33 33 34 35 35 34 34 36 39 42 44 45 47 49 49 48 46 45 46 45 44 43 43 42 40 37 36 35 35 35 34 34 35 34 34 34 34 33 33 32 32 31 31 31 31 32 31 31 31 30 30 31 31 29 29 29 28 28 26 23 24 25 23 20 19 17 14 12 13 14 13 12 11 10 10 10 9 9 9
25 27 28 30 31 32 33 34 35 36 37 36 36 36 37 40 43 45 46 48 48 46 44 44 46 46 45 45 44 43 41 39 38 37 36 35 34 34 33 33 33 33 33 32 32 31 31 31 30 30 31 31 31 32 33 33 32 31 30 29 29 28 27 27 26 25 22 18 17 18 17 14 12 13 14 13 11 10 9 9 9 10 10 9 10
24 24 24 25 27 29 31 33 35 36 37 37 37 37 38 39 41 43 44 45 47 46 44 43 44 45 46 46 45 44 43 41 39 38 37 36 35 34 33 33 33 33 33 32 31 31 32 31 31 30 30 31 31 32 34 34 33 31 31 31 29 28 28 29 26 23 19 17 15 14 13 12 12 13 11 9 9 8 8 9 10 10 10 11 11
19 20 20 21 24 27 29 31 34 35 36 37 37 37 38 38 39 40 41 41 43 44 44 44 44 44 44 45 45 45 44 42 40 38 37 36 35 34 34 34 33 33 32 32 33 33 33 32 31 30 29 30 31 30 30 32 34 32 32 32 29 28 29 25 21 19 20 20 16 11 11 11 11 10 9 8 8 8 9 11 11 11 11 12 12
17 17 17 18 21 24 26 28 30 30 30 31 32 33 35 36 37 37 38 38 39 40 42 43 43 42 42 43 44 45 44 42 40 38 36 34 33 33 33 33 32 31 31 31 33 33 32 31 30 29 28 28 28 25 24 28 31 30 29 28 26 24 22 19 17 18 18 14 11 9 10 10 9 9 9 9 8 9 10 11 11 12 12 12 12
17 16 15 17 20 22 23 23 23 22 23 24 25 27 30 33 34 34 34 35 36 36 36 37 38 39 41 42 42 42 43 43 42 38 35 32 32 32 32 32 31 30 30 31 30 30 29 29 28 28 27 25 23 19 17 21 24 24 24 22 19 16 17 17 16 15 12 9 9 9 9 9 9 9 9 8 8 9 10 11 12 12 12 12 13
16 15 14 14 17 17 17 17 15 15 17 20 21 22 24 27 30 30 30 31 32 31 31 33 34 35 37 38 37 37 39 40 39 35 31 30 30 31 31 30 30 30 29 29 28 27 27 27 26 26 24 21 20 20 17 16 18 19 18 17 15 15 16 15 12 10 9 9 10 9 8 9 9 9 9 9 10 11 11 12 12 12 12 13 14
13 12 10 10 13 13 12 12 11 10 12 14 16 17 18 20 23 24 24 25 24 22 23 26 28 29 30 32 32 32 32 33 32 30 29 29 28 29 29 28 27 26 26 26 25 25 24 24 23 23 20 18 20 21 17 14 15 15 14 13 14 14 14 11 9 9 11 11 10 10 10 9 9 9 10 11 11 12 12 12 12 12 13 13 14
12 10 8 8 11 12 9 7 7 6 5 4 4 6 10 14 17 19 19 19 19 18 19 20 21 22 25 27 28 28 29 29 28 27 27 26 24 24 25 24 23 23 23 22 21 20 19 19 19 18 17 14 15 16 14 13 14 13 12 12 12 12 11 10 11 12 13 12 12 12 11 10 10 11 12 11 11 12 12 13 13 13 13 13 13
12 10 8 7 8 10 10 6 4 4 4 4 4 3 1 4 6 9 13 18 20 19 18 18 18 20 22 24 25 23 23 24 24 22 22 22 21 21 21 20 19 18 16 15 14 13 13 13 13 13 13 11 10 12 13 13 12 12 12 12 12 12 11 12 12 13 13 13 13 12 11 11 11 11 11 11 12 12 14 14 14 13 12 12 12
11 11 10 9 7 7 8 7 5 5 6 8 7 6 5 5 5 3 8 16 20 17 14 14 15 17 18 19 19 16 12 12 14 15 16 17 17 16 14 13 11 11 10 10 11 11 12 13 12 12 12 11 10 11 11 11 12 12 12 12 12 12 12 12 12 12 12 12 11 11 11 11 11 11 12 12 12 13 13 13 13 12 12 12 13
11 10 10 10 9 7 4 5 8 8 9 12 14 14 12 10 8 8 10 14 14 11 11 12 13 14 16 16 16 13 10 10 11 12 13 14 13 12 12 11 10 9 9 10 11 12 13 13 13 13 12 12 11 10 11 11 12 12 11 11 11 11 11 11 11 11 11 10 10 10 10 11 11 11 11 11 11 12 12 12 12 12 13 14 15
10 9 10 11 9 8 5 2 7 10 10 11 13 16 19 18 17 15 15 14 12 10 11 12 12 13 14 14 13 12 12 12 12 13 12 11 11 10 9 9 9 9 11 12 13 14 15 14 14 13 13 12 11 12 12 12 11 11 11 11 10 9 10 10 11 11 10 10 10 11 11 11 11 11 10 11 11 12 12 12 13 14 15 16 17
9 12 12 11 9 7 7 7 6 7 7 5 6 8 12 16 19 20 19 17 17 16 16 15 15 16 16 17 16 16 16 16 15 13 12 11 11 10 10 10 11 12 13 14 14 14 14 14 13 13 12 12 12 12 12 11 11 10 10 10 9 9 10 10 11 11 11 11 11 11 11 11 11 11 11 11 12 12 12 13 14 15 16 18 19
10 13 14 9 6 6 8 8 8 7 6 4 2 3 6 9 12 13 13 14 14 15 15 15 16 16 17 18 18 18 19 19 18 17 16 15 14 13 13 12 12 13 13 13 12 12 12 12 11 11 10 10 10 10 10 10 9 9 9 9 9 9 10 11 11 11 11 11 11 12 12 12 12 13 13 12 12 11 12 14 16 18 19 20 21
11 11 12 8 6 8 8 7 5 5 5 6 6 6 7 8 8 8 8 8 9 9 10 11 12 13 13 13 14 15 15 16 16 15 15 14 13 12 11 11 10 10 10 10 10 10 10 9 8 7 7 7 8 8 9 9 9 9 9 9 9 9 10 10 11 12 12 12 12 12 13 13 14 14 13 13 12 13 14 17 19 20 21 22 24
13 15 14 12 12 12 10 7 5 4 4 5 6 6 8 9 9 8 8 7 7 7 8 8 9 11 11 11 12 12 13 13 12 12 11 11 10 10 9 9 9 8 8 8 8 8 8 7 6 6 6 7 8 8 9 10 10 10 10 10 10 10 10 11 11 12 13 13 13 13 13 14 15 15 14 14 15 16 18 20 21 22 23 24 25
7 12 13 14 14 12 10 8 7 7 7 6 5 6 7 9 9 8 8 7 7 6 7 7 9 10 11 11 11 11 11 11 10 10 9 9 8 8 8 7 7 7 6 7 7 7 7 7 7 7 7 8 9 10 10 11 11 11 11 12 11 11 11 11 11 12 13 14 14 15 15 15 16 16 17 18 20 21 22 22 23 23 24 25 26
6 9 10 11 12 12 9 8 8 8 7 6 5 6 7 8 9 9 9 9 8 7 8 9 11 12 12 11 11 10 10 9 8 8 8 8 7 8 8 7 7 7 7 7 7 8 8 8 9 9 10 10 11 11 12 12 12 12 13 13 13 12 12 12 13 14 15 15 15 15 15 15 16 18 21 23 25 24 24 23 24 24 24 25 26
5 7 8 8 9 9 8 8 8 7 7 6 6 7 8 8 9 9 10 10 10 10 9 9 10 10 9 9 9 9 8 8 7 8 8 8 9 9 9 9 9 9 8 8 8 9 10 10 11 12 13 13 13 13 13 12 13 14 14 14 13 13 13 14 15 15 16 16 16 16 16 16 18 21 24 25 25 24 23 23 23 23 24 25 25
5 6 6 5 5 6 6 6 6 6 5 5 5 6 7 7 7 8 8 8 9 9 8 8 8 7 8 8 8 8 8 8 8 9 9 9 9 9 9 9 8 8 8 8 9 10 10 11 13 15 15 16 16 15 14 14 16 17 17 17 17 16 16 17 17 18 18 19 18 18 20 21 22 24 24 23 23 23 23 23 23 24 25 26 24
3 4 5 4 4 4 4 4 5 5 6 6 5 4 5 5 6 6 7 7 7 7 7 7 7 8 8 9 8 8 8 8 8 8 8 8 8 8 7 6 6 6 7 8 8 9 10 11 13 15 16 17 18 18 17 17 19 20 20 20 20 19 19 20 20 20 20 20 20 21 22 23 23 23 22 22 23 23 24 24 25 25 25 24 23
1 3 3 2 1 1 2 2 3 4 5 5 5 4 3 4 5 6 6 6 6 7 8 8 9 9 9 9 8 8 8 8 7 7 7 7 8 8 6 5 5 6 6 6 6 7 8 10 12 14 14 15 16 17 18 18 19 20 21 22 22 22 23 23 23 22 22 23 24 24 24 23 23 23 22 23 23 24 24 25 25 25 24 22 21
2 1 2 3 3 2 2 3 3 3 3 2 3 3 3 2 4 5 5 5 4 5 5 6 8 9 9 8 8 8 8 8 8 8 8 8 8 7 6 5 6 6 6 6 6 7 8 9 10 11 12 13 14 15 16 16 17 17 19 21 22 23 24 24 24 24 24 24 24 24 23 22 23 22 22 23 24 24 25 26 25 23 22 21 20
2 2 4 5 4 4 4 3 3 3 3 1 1 2 2 3 3 3 3 3 3 3 4 4 5 7 7 7 5 5 6 7 8 9 8 7 6 6 6 6 6 6 6 6 7 8 9 10 10 10 11 12 13 14 14 15 15 16 17 19 20 21 21 21 21 21 22 22 22 22 22 22 22 22 22 23 25 26 26 25 24 22 21 21 21
4 4 4 4 5 4 4 3 3 3 3 2 2 2 3 3 3 2 3 3 4 4 4 5 6 7 7 6 4 3 4 6 7 7 7 6 6 7 7 7 6 5 5 6 8 9 11 12 12 12 12 13 14 14 14 15 16 16 17 18 19 19 19 20 20 21 21 22 22 23 23 24 24 25 26 27 27 26 25 23 22 21 21 21 21
6 4 3 4 5 5 4 4 4 4 3 3 3 4 5 5 5 4 4 5 6 6 6 7 7 8 7 5 4 4 5 6 7 8 8 8 9 10 10 9 8 7 6 7 8 10 11 13 14 14 15 15 15 15 16 17 17 18 19 19 20 21 21 22 22 23 23 24 24 25 26 26 27 27 28 27 26 24 23 22 21 21 21 21 21
7 5 4 4 5 5 4 4 4 5 5 5 6 6 6 7 8 9 9 8 8 8 8 8 8 8 7 6 4 4 4 6 8 9 9 10 10 11 11 10 10 9 9 9 9 11 12 13 14 15 16 17 17 17 17 18 20 20 21 22 23 23 24 24 25 26 27 27 27 27 27 28 27 27 26 25 24 23 22 22 22 22 22 21 22
Wind_Direction
180 178 177 178 182 185 187 189 191 192 194 196 196 195 198 199 198 200 202 202 204 203 201 201 200 200 204 208 210 210 211 211 213 214 214 215 218 221 223 224 224 224 225 228 229 229 232 237 243 249 252 254 254 254 257 258 257 258 260 260 264 276 282 278 278 286 294 298 302 308 307 303 303 305 308 311 311 310 310 309 307 301 290 283 284
189 187 185 185 187 189 190 192 194 195 197 200 201 202 204 205 205 206 207 208 210 211 210 207 204 204 207 209 209 212 214 215 216 216 216 216 218 221 223 222 221 224 227 229 231 234 237 240 242 244 247 250 252 254 256 257 255 255 258 260 264 274 277 276 280 287 292 298 301 302 302 301 301 303 306 309 309 309 311 311 311 307 300 291 288
193 195 192 191 192 192 193 194 197 199 200 202 205 208 209 210 210 210 210 211 213 216 217 215 211 209 210 212 212 212 214 215 218 218 217 218 219 221 224 224 223 227 230 233 237 240 240 239 239 242 246 248 251 255 259 261 262 259 262 266 270 275 277 277 280 283 286 292 295 296 297 298 299 301 304 306 307 307 308 309 310 308 302 295 290
193 200 199 196 197 199 199 199 201 202 202 203 207 211 212 212 214 215 214 214 216 217 218 218 218 214 213 214 215 215 215 216 219 219 218 221 223 224 228 230 230 231 233 236 237 239 239 239 240 242 246 249 250 253 258 261 262 261 263 267 271 274 275 274 274 277 281 284 286 290 295 297 298 300 301 301 303 303 304 306 308 309 305 298 292
194 200 204 203 203 205 206 206 207 207 206 206 208 212 213 213 216 217 218 219 219 219 219 218 219 219 218 219 219 219 218 219 222 223 223 224 227 230 231 233 234 234 234 234 234 236 239 241 243 243 245 248 251 255 259 263 265 265 265 269 270 271 272 271 272 275 278 280 284 290 295 297 297 296 297 299 301 301 302 303 304 305 304 300 296
199 198 203 207 207 209 211 212 212 212 212 210 209 212 215 216 218 218 220 221 222 222 222 221 220 221 222 224 225 224 222 221 223 226 227 228 230 233 234 234 233 232 232 231 231 234 239 242 244 245 248 252 256 260 263 265 266 266 267 269 271 272 271 270 272 275 279 282 287 293 295 295 295 295 296 297 298 300 300 298 298 299 299 299 298
206 201 203 208 209 210 212 213 213 214 214 213 212 212 214 217 220 221 221 222 224 225 225 223 223 224 224 224 225 227 227 223 221 224 229 229 229 231 234 233 230 228 230 231 232 235 239 243 245 248 253 257 259 261 262 262 263 266 269 272 275 277 279 279 279 281 283 285 289 292 293 292 293 296 297 297 297 299 299 297 296 295 295 294 295
209 206 206 209 211 212 213 213 216 217 217 216 215 213 214 217 219 221 222 222 223 224 224 223 225 228 230 228 225 226 229 229 225 223 226 228 228 227 229 231 232 233 233 232 236 240 243 244 246 249 253 257 260 262 263 263 264 264 267 270 273 277 280 282 283 283 284 285 288 289 290 292 294 296 297 297 297 297 297 296 295 293 292 292 291
212 211 210 210 212 214 215 215 217 220 222 222 221 218 216 219 222 222 222 222 223 224 223 221 221 226 231 231 229 226 227 229 229 228 227 228 228 228 228 231 234 237 237 234 233 236 241 244 246 248 251 255 258 260 260 260 261 263 265 268 271 274 277 279 281 282 281 282 284 287 290 292 294 296 298 299 298 296 295 294 293 292 293 293 291
218 216 213 212 213 216 217 218 219 220 222 226 229 226 221 221 225 227 225 223 224 227 228 224 220 218 221 227 229 229 227 228 229 230 230 228 229 231 231 231 231 234 236 237 236 236 239 240 242 246 249 253 256 258 259 259 261 264 268 271 273 273 274 275 277 279 278 279 283 286 289 291 293 297 299 300 298 296 294 293 292 292 292 292 291
225 223 217 213 214 216 219 222 223 222 222 225 230 232 229 225 225 229 230 227 226 228 230 229 225 218 215 219 225 228 229 229 230 229 229 228 228 231 233 231 229 229 233 237 239 241 242 242 244 247 250 255 259 260 262 263 264 266 268 270 271 271 272 273 275 277 277 279 283 285 287 290 293 296 299 300 299 296 294 293 292 291 291 291 290
225 227 225 221 218 218 222 226 228 228 227 227 230 233 234 231 228 228 230 231 231 232 232 231 229 224 218 216 220 225 226 228 230 230 229 228 228 230 231 231 230 230 233 236 238 241 243 244 246 249 254 259 261 262 264 264 265 266 268 270 271 272 273 274 274 274 275 276 279 282 286 289 291 294 296 298 298 296 294 292 290 289 289 288 289
221 225 228 227 225 225 228 231 234 233 232 232 233 234 235 235 233 232 232 232 234 235 235 234 233 231 226 220 219 222 224 226 228 230 229 230 231 232 233 235 236 236 237 238 239 241 243 246 249 251 255 258 259 262 264 265 266 268 270 271 271 271 272 275 275 274 273 273 276 281 285 287 288 290 292 293 294 294 294 292 288 285 285 285 285
220 221 224 227 227 228 229 233 236 236 234 233 233 234 235 236 236 236 235 234 234 236 237 237 236 236 234 228 224 223 224 225 226 227 228 229 231 235 238 240 241 241 242 243 243 242 242 245 248 251 253 256 259 262 264 266 268 269 270 269 268 269 273 276 278 277 273 272 275 279 283 284 284 285 287 289 290 292 293 292 286 282 281 282 282
220 218 218 222 225 228 229 230 232 232 232 231 230 231 233 235 236 235 234 235 235 236 238 239 238 238 238 236 232 229 227 227 226 226 226 226 228 232 235 238 240 242 245 246 246 246 246 247 249 252 255 257 260 263 265 266 267 268 268 267 267 269 272 274 276 276 273 272 274 277 279 280 281 282 285 286 287 289 291 289 283 278 278 279 281
225 221 218 218 222 225 228 230 230 229 229 229 229 230 232 234 235 234 233 234 234 235 237 238 238 238 238 238 236 235 233 231 230 228 226 226 228 229 230 233 237 241 244 247 249 250 251 252 254 256 258 260 262 263 264 265 267 268 267 267 267 269 270 271 272 273 272 273 274 276 276 276 277 279 281 283 284 285 286 282 277 274 276 278 280
231 230 226 223 223 225 227 230 230 228 226 227 229 231 233 234 235 234 233 233 233 233 234 236 238 239 239 238 236 236 236 235 234 234 232 231 231 230 232 234 236 239 242 245 249 251 253 255 256 258 261 263 263 263 264 266 267 267 267 268 269 270 270 271 273 273 273 273 273 274 275 276 277 278 279 280 281 282 280 275 272 273 275 278 281
229 230 228 227 228 228 228 229 229 228 227 227 228 229 231 233 234 234 233 232 232 233 234 236 238 239 240 240 239 238 237 236 236 237 239 239 237 235 236 236 237 239 241 244 248 251 254 257 259 261 264 265 265 265 266 267 267 268 269 270 270 271 272 272 273 273 272 271 272 273 275 276 277 279 280 280 279 278 277 274 274 275 277 280 283
224 225 226 226 229 231 231 231 231 231 230 229 229 229 230 230 231 233 234 232 231 232 232 234 236 239 240 241 240 240 239 238 238 238 239 241 242 242 241 240 240 240 242 245 249 252 256 260 262 264 265 266 266 267 267 268 269 269 270 271 272 273 272 272 272 271 270 272 273 274 274 275 275 276 277 276 276 277 277 277 277 276 278 281 282
225 226 227 227 229 231 233 234 234 235 235 234 233 232 231 230 230 232 234 234 233 233 232 232 232 234 238 240 240 239 239 239 239 239 239 239 242 245 246 245 245 245 246 249 252 255 259 262 265 268 268 267 268 268 268 269 269 270 271 273 273 273 272 271 270 268 269 271 273 274 277 276 270 267 270 272 275 278 279 278 278 279 281 283 282
230 230 230 231 231 233 235 238 240 241 242 241 239 236 233 232 232 234 236 237 236 235 234 234 232 230 231 236 238 238 237 237 238 240 241 241 242 245 247 249 249 250 250 252 255 258 260 262 265 268 268 268 268 267 267 268 269 270 271 271 271 269 268 268 267 266 268 271 274 278 280 277 266 261 269 273 274 276 276 276 278 280 281 280 276
236 235 234 234 235 237 238 241 244 246 247 246 244 240 237 235 234 235 236 237 237 236 235 236 237 235 231 232 235 236 236 235 234 236 239 242 244 246 248 250 250 250 252 254 256 258 260 262 263 263 264 265 265 264 265 267 268 269 270 272 272 267 264 265 267 267 270 277 280 277 272 268 270 274 274 271 271 273 274 275 277 276 274 270 265
239 238 237 237 240 242 243 245 248 251 252 250 247 243 240 239 238 238 238 239 240 239 237 236 238 239 236 234 235 236 236 235 234 233 235 239 243 246 249 250 250 250 252 253 255 256 256 256 257 258 260 261 262 263 266 269 271 271 272 274 272 269 269 271 269 268 276 282 282 276 269 272 279 277 269 269 271 271 270 270 270 267 263 261 260
241 240 240 242 246 249 250 250 251 254 256 255 252 248 244 242 241 241 242 243 244 243 241 238 238 238 237 236 236 236 237 236 236 234 234 236 239 243 246 248 249 251 252 253 253 253 253 253 254 256 259 260 263 266 269 271 273 273 272 273 272 271 276 280 278 279 281 276 269 270 276 281 279 269 265 269 267 262 260 259 258 257 256 254 256
246 246 246 248 252 256 258 258 257 258 259 259 257 254 248 245 244 243 243 245 246 245 242 239 237 237 237 236 235 236 237 237 236 236 237 237 239 241 244 246 249 251 251 251 252 253 253 254 255 257 261 264 267 270 272 272 272 271 270 270 267 267 275 282 283 281 276 264 259 266 273 273 268 264 265 264 258 252 250 247 246 247 248 250 256
250 251 253 256 259 263 265 266 264 262 261 261 260 256 251 245 243 243 243 244 245 244 242 239 237 237 238 235 234 235 236 235 235 237 238 239 241 243 244 246 248 250 250 251 253 254 254 253 254 259 264 268 271 275 276 272 269 270 272 268 264 267 274 278 275 271 267 269 271 268 264 262 263 262 259 254 248 244 240 238 238 240 244 253 262
245 246 255 264 268 269 269 269 268 266 263 261 259 256 251 245 241 241 242 243 243 242 240 239 237 236 236 235 234 235 234 233 234 236 238 240 242 243 244 246 249 251 254 256 256 257 257 258 260 264 267 271 274 277 274 263 256 261 269 266 263 268 271 267 262 263 267 270 267 257 255 260 256 248 243 242 239 234 234 237 241 246 254 263 270
238 242 258 270 274 275 273 270 267 265 263 259 256 254 249 242 239 240 241 241 240 239 238 238 237 235 233 234 235 236 234 233 233 234 237 240 242 243 244 246 249 253 257 258 258 259 260 262 265 268 271 275 276 273 265 256 251 254 261 261 261 265 264 258 258 261 260 256 253 254 258 255 245 241 244 243 239 237 239 243 250 258 266 273 278
235 245 263 276 281 280 274 267 265 264 264 262 259 254 248 241 238 239 240 240 239 238 238 238 237 233 231 233 235 235 234 233 232 231 233 237 239 241 243 244 248 253 255 254 255 257 259 262 267 270 273 277 274 265 257 256 256 256 255 250 247 249 251 252 253 248 243 246 258 264 260 254 251 251 248 244 242 242 243 249 258 266 274 278 281
238 250 267 285 297 293 274 262 263 265 264 264 262 257 248 241 238 239 241 241 240 239 239 239 236 234 232 233 234 236 237 235 231 228 230 234 236 239 242 245 249 251 251 251 253 257 261 265 268 270 272 269 258 251 248 248 249 250 246 235 229 234 241 241 236 232 241 256 263 263 261 260 259 255 248 244 243 244 249 257 265 273 280 284 288
246 251 267 301 327 323 290 265 264 266 264 267 268 260 247 238 236 239 240 240 240 239 234 231 231 230 228 229 232 235 236 234 230 229 234 237 237 238 242 246 248 248 248 251 255 259 262 263 264 265 262 249 237 238 240 237 236 236 230 224 226 230 229 225 227 240 252 258 261 263 261 256 249 246 243 243 246 253 262 269 275 281 285 288 292
254 251 260 295 330 339 328 297 284 287 287 295 296 268 243 234 234 237 237 233 232 231 225 220 220 220 217 218 223 229 232 232 230 230 234 236 235 237 241 244 246 248 250 252 254 254 255 253 252 248 240 226 219 222 221 219 219 218 215 217 223 223 220 226 238 247 253 258 261 260 254 243 237 238 242 248 257 266 274 279 284 287 289 292 294
255 249 246 261 304 338 354 353 335 339 11 42 60 73 133 201 218 231 230 218 211 208 205 203 204 206 207 211 216 222 227 226 221 220 225 229 231 237 241 242 242 242 241 239 237 234 229 224 220 212 202 193 191 193 194 198 203 205 209 216 222 225 230 237 243 247 251 255 255 252 247 241 239 243 251 259 268 275 282 288 292 295 298 302 306
254 255 251 248 267 314 352 17 26 36 56 71 81 88 95 105 109 136 191 190 183 178 178 181 186 191 197 203 208 208 204 200 199 204 215 221 223 223 220 214 211 209 205 201 202 201 196 194 195 193 189 189 190 188 189 198 206 212 219 225 229 233 235 237 238 240 242 245 245 244 245 247 251 258 265 272 279 286 291 297 301 305 309 314 317
250 255 254 247 250 271 320 46 64 70 78 81 83 87 93 100 110 129 150 157 157 166 181 186 189 197 203 207 207 203 194 187 185 187 190 192 189 183 179 178 180 187 191 191 194 196 196 197 202 202 199 201 206 207 209 214 218 223 228 229 230 232 232 231 232 233 233 236 239 243 249 255 262 269 275 283 290 294 298 302 305 309 314 314 312
240 238 244 256 263 261 247 148 101 96 91 81 78 84 90 92 97 108 119 124 125 140 162 170 177 189 195 195 193 189 185 183 180 176 172 169 165 163 167 175 186 200 207 209 210 211 210 211 214 214 213 216 220 220 222 224 226 226 226 224 223 224 224 226 229 231 234 239 244 249 256 261 267 273 280 288 293 296 298 301 304 309 312 310 308
214 217 232 261 278 254 222 199 165 138 120 92 72 84 96 99 101 105 111 116 120 126 132 137 142 148 152 153 154 156 160 163 165 164 162 162 164 170 180 191 203 215 220 219 219 218 218 220 223 222 220 220 221 221 223 225 222 219 218 219 217 217 220 225 230 235 240 246 252 258 264 267 272 277 282 288 292 292 293 296 300 305 307 307 309
187 208 224 242 251 215 196 191 191 191 192 198 193 144 129 125 122 120 122 126 132 138 141 144 147 149 151 155 158 162 166 170 172 174 178 183 190 199 206 211 218 225 227 223 218 216 216 219 221 221 218 216 217 220 223 224 221 218 218 220 221 223 228 233 238 243 248 252 259 265 270 274 279 282 285 288 288 288 291 296 301 305 307 308 311
161 190 214 210 171 152 148 149 163 187 206 213 207 183 162 157 157 155 153 155 159 166 169 168 170 174 177 179 182 186 189 190 193 197 201 205 208 211 212 215 218 221 222 219 212 209 210 214 218 220 219 219 220 223 225 228 230 230 231 234 236 237 239 240 244 252 258 262 265 270 276 281 282 283 286 289 292 294 298 302 306 309 310 311 312
155 166 178 170 146 131 124 121 128 148 180 198 195 174 166 172 177 174 173 177 180 182 183 181 181 187 192 193 193 196 199 201 203 205 206 204 203 203 204 208 211 212 215 216 214 214 216 220 222 222 220 222 228 231 234 238 241 242 242 244 244 243 245 247 250 258 266 272 276 280 284 284 282 281 286 292 296 300 304 307 309 311 311 311 312
129 141 149 146 137 131 134 140 147 158 176 188 178 157 161 171 172 166 167 173 177 181 180 172 169 174 178 175 175 181 186 189 191 194 194 192 193 198 205 213 220 224 226 228 229 229 230 230 233 235 238 241 244 244 243 245 247 247 247 250 251 252 252 252 255 263 272 278 283 286 286 285 285 288 293 299 303 306 309 311 310 310 310 310 310
75 82 88 97 106 113 124 136 142 150 162 168 155 142 146 152 150 148 151 154 158 166 170 165 162 165 167 166 168 174 177 179 182 188 194 198 203 210 218 227 236 242 244 247 248 248 249 249 250 251 254 256 255 253 251 251 253 255 258 261 262 260 259 260 264 270 275 278 283 286 285 285 289 293 297 302 305 307 307 307 307 306 306 305 307
112 95 85 87 96 106 117 128 133 135 141 146 147 143 143 143 143 143 145 146 149 154 158 158 159 163 167 172 177 181 183 188 196 205 213 220 226 231 235 240 244 247 251 257 262 265 266 265 262 260 260 258 255 253 253 255 258 262 265 266 266 265 264 265 268 272 275 279 284 284 282 282 285 288 292 296 298 298 298 299 299 299 299 301 304
147 136 131 132 134 138 144 147 146 146 152 160 165 161 156 153 152 154 154 156 158 161 163 166 170 177 185 194 202 206 210 214 220 226 231 236 239 244 249 253 256 258 260 261 261 262 264 264 264 263 262 262 261 259 255 253 254 257 258 260 262 263 263 264 267 271 275 277 276 275 274 276 279 282 285 286 287 289 291 292 292 293 295 298 300
150 134 134 141 147 155 166 166 165 175 186 189 190 190 183 178 179 181 185 189 193 194 194 197 200 206 212 216 220 223 226 227 230 235 241 248 256 263 268 272 274 273 271 268 262 257 254 252 252 253 255 258 261 261 258 254 253 253 254 256 258 260 261 262 264 266 267 267 266 267 270 272 273 276 279 280 280 282 284 285 287 290 294 295 295
68 96 120 147 146 162 209 210 197 199 199 186 175 177 189 198 200 199 196 200 208 215 218 220 224 229 231 232 234 238 242 246 252 258 264 271 275 276 276 278 282 281 279 277 270 260 250 243 241 242 243 245 248 252 254 254 253 252 251 252 254 256 258 261 262 263 264 266 268 270 272 271 270 270 273 274 274 275 277 282 287 292 293 293 293
345 75 159 188 200 227 262 272 262 253 247 203 161 162 171 181 190 191 183 178 186 203 214 220 227 235 240 241 244 254 264 273 277 278 279 281 284 284 282 282 283 284 283 277 269 261 255 249 245 244 243 242 242 245 248 250 250 251 250 251 253 255 258 260 263 264 266 269 271 274 275 275 274 273 273 273 274 278 283 288 291 293 292 292 292
285 229 201 210 225 237 249 265 278 281 284 290 182 179 185 182 180 181 179 174 178 198 219 228 232 239 246 249 255 268 278 280 281 283 286 290 294 295 290 283 280 280 279 274 267 262 260 261 261 260 257 254 254 254 254 254 254 255 254 254 255 257 258 260 262 265 267 271 276 279 282 281 280 279 278 280 283 286 288 289 289 289 290 291 290
251 237 222 231 247 247 238 237 250 265 270 265 239 231 235 232 220 209 216 225 228 235 246 251 251 256 265 279 301 312 295 286 287 292 299 304 305 302 300 297 294 289 280 272 266 262 261 262 265 265 265 265 265 265 265 266 266 266 266 266 266 267 267 267 268 271 274 277 281 284 285 284 282 281 282 284 285 286 286 287 287 288 289 290 290
249 247 230 228 239 240 228 214 216 232 248 252 251 257 266 276 280 277 270 264 263 265 267 267 268 273 282 297 317 322 307 299 297 298 300 302 304 305 305 304 302 298 290 281 274 269 266 264 264 264 266 269 271 272 274 275 276 277 278 277 277 276 277 277 278 279 281 283 284 284 283 282 281 282 282 282 282 283 285 288 289 289 289 289 289
262 265 254 234 232 233 223 205 200 210 219 223 229 242 255 265 271 274 278 282 283 283 284 285 287 292 297 300 300 298 294 290 289 290 292 294 298 300 301 299 298 297 296 292 285 279 274 271 270 269 269 270 271 272 273 273 275 276 276 276 276 277 277 278 279 279 280 281 280 280 279 278 279 280 280 280 281 283 286 287 288 288 288 287 286
Height
3167 3168 3169 3171 3173 3175 3176 3178 3179 3181 3183 3184 3186 3188 3189 3191 3192 3194 3195 3197 3198 3199 3200 3201 3203 3204 3205 3207 3208 3209 3211 3212 3213 3215 3216 3217 3218 3219 3220 3221 3221 3222 3222 3223 3224 3224 3224 3224 3225 3225 3225 3225 3225 3225 3225 3225 3225 3225 3224 3224 3224 3223 3223 3223 3223 3222 3222 3222 3221 3221 3221 3220 3219 3218 3217 3216 3215 3214 3213 3212 3211 3210 3209 3209 3208
3167 3169 3170 3171 3173 3175 3176 3178 3179 3181 3182 3184 3185 3187 3188 3190 3191 3192 3194 3195 3196 3197 3199 3200 3201 3202 3204 3205 3207 3208 3209 3210 3212 3213 3214 3215 3216 3217 3218 3219 3220 3221 3221 3222 3222 3222 3222 3223 3223 3224 3224 3223 3223 3223 3223 3223 3223 3223 3223 3223 3223 3222 3222 3222 3221 3221 3221 3221 3221 3220 3220 3219 3218 3217 3216 3215 3214 3213 3212 3211 3210 3208 3207 3206 3206
3167 3169 3170 3171 3173 3174 3176 3177 3179 3180 3181 3183 3185 3186 3187 3189 3190 3191 3192 3193 3195 3196 3197 3198 3200 3201 3202 3204 3205 3206 3207 3209 3210 3211 3212 3214 3215 3216 3217 3218 3218 3219 3220 3220 3220 3221 3221 3221 3222 3222 3222 3222 3222 3221 3221 3221 3221 3222 3222 3221 3221 3221 3221 3220 3220 3220 3220 3220 3219 3219 3218 3217 3216 3216 3215 3214 3212 3211 3210 3209 3208 3207 3206 3204 3203
3167 3168 3170 3171 3172 3174 3175 3177 3178 3179 3181 3182 3184 3185 3186 3188 3189 3190 3191 3192 3193 3195 3196 3197 3198 3199 3200 3202 3203 3204 3206 3207 3208 3209 3211 3212 3213 3214 3215 3216 3217 3217 3218 3218 3219 3219 3219 3219 3220 3220 3220 3220 3220 3219 3219 3219 3219 3219 3220 3220 3219 3219 3219 3219 3218 3218 3218 3218 3217 3217 3216 3216 3215 3214 3213 3212 3211 3210 3209 3208 3207 3205 3204 3203 3202
3165 3167 3169 3170 3171 3173 3174 3176 3177 3178 3179 3181 3182 3184 3185 3186 3187 3189 3190 3191 3192 3193 3194 3195 3196 3197 3199 3200 3201 3202 3204 3205 3206 3207 3209 3210 3211 3212 3213 3214 3215 3215 3216 3216 3217 3217 3217 3218 3218 3218 3218 3218 3218 3218 3218 3218 3218 3218 3218 3218 3217 3217 3217 3217 3217 3216 3216 3216 3215 3215 3214 3214 3213 3212 3212 3211 3210 3209 3207 3206 3205 3204 3203 3202 3200
3164 3166 3167 3169 3170 3172 3173 3174 3176 3177 3178 3179 3181 3182 3183 3185 3186 3187 3188 3189 3190 3192 3193 3194 3195 3196 3197 3198 3199 3200 3201 3203 3204 3205 3206 3208 3209 3210 3211 3211 3212 3213 3213 3214 3215 3215 3216 3216 3216 3216 3216 3216 3216 3217 3217 3217 3216 3217 3217 3216 3216 3216 3215 3215 3215 3214 3214 3214 3213 3213 3213 3212 3211 3210 3210 3209 3208 3207 3206 3205 3203 3202 3201 3200 3199
3163 3165 3166 3167 3169 3170 3172 3173 3175 3176 3177 3178 3179 3180 3181 3183 3184 3185 3187 3187 3188 3189 3191 3192 3193 3194 3195 3196 3197 3198 3199 3201 3202 3203 3204 3205 3206 3207 3208 3209 3210 3211 3212 3212 3213 3213 3214 3214 3214 3214 3214 3215 3215 3215 3215 3215 3215 3214 3214 3214 3214 3214 3214 3213 3213 3213 3212 3212 3212 3211 3211 3210 3209 3209 3208 3207 3206 3205 3204 3203 3202 3201 3200 3199 3198
3162 3163 3164 3166 3167 3169 3171 3172 3174 3175 3176 3177 3178 3179 3180 3181 3182 3183 3184 3185 3186 3187 3188 3190 3191 3192 3193 3194 3195 3196 3197 3198 3200 3201 3202 3203 3204 3205 3206 3207 3208 3209 3210 3211 3211 3211 3212 3212 3212 3213 3213 3213 3213 3213 3213 3213 3212 3212 3212 3212 3212 3212 3211 3211 3211 3211 3210 3210 3210 3209 3209 3208 3208 3207 3206 3205 3204 3203 3202 3201 3200 3199 3198 3197 3196
3160 3161 3163 3164 3166 3168 3169 3171 3172 3173 3175 3175 3176 3177 3178 3179 3180 3181 3183 3183 3184 3185 3186 3187 3189 3189 3191 3192 3193 3194 3195 3196 3198 3199 3200 3201 3202 3203 3204 3205 3206 3207 3208 3208 3209 3209 3210 3210 3211 3211 3211 3211 3211 3211 3211 3210 3210 3210 3210 3210 3210 3210 3210 3209 3209 3209 3208 3208 3207 3207 3206 3206 3205 3204 3204 3202 3201 3201 3200 3199 3198 3197 3196 3195 3194
3158 3159 3161 3163 3164 3166 3167 3168 3170 3171 3173 3174 3175 3176 3176 3177 3178 3180 3181 3182 3182 3183 3184 3185 3186 3187 3188 3189 3190 3191 3193 3194 3195 3197 3198 3199 3200 3201 3202 3203 3204 3204 3205 3206 3206 3207 3208 3208 3209 3209 3209 3209 3209 3209 3209 3208 3209 3209 3209 3209 3208 3208 3208 3207 3207 3207 3206 3205 3205 3205 3204 3204 3203 3202 3201 3200 3199 3198 3197 3196 3196 3195 3194 3193 3192
3157 3158 3159 3161 3162 3163 3165 3166 3167 3168 3170 3172 3173 3174 3175 3175 3176 3177 3179 3180 3181 3181 3182 3183 3184 3185 3186 3187 3188 3189 3190 3191 3193 3194 3195 3196 3197 3198 3199 3200 3201 3202 3202 3203 3204 3205 3205 3206 3206 3207 3207 3207 3207 3207 3207 3207 3207 3207 3207 3207 3206 3206 3206 3205 3205 3204 3203 3203 3203 3202 3202 3201 3200 3199 3198 3197 3197 3196 3195 3194 3193 3192 3192 3191 3189
3155 3156 3158 3159 3160 3161 3162 3163 3164 3166 3167 3168 3170 3172 3173 3173 3174 3175 3176 3178 3179 3179 3180 3180 3181 3182 3183 3184 3185 3186 3187 3189 3190 3192 3193 3194 3195 3196 3197 3198 3198 3199 3200 3201 3202 3203 3203 3204 3204 3205 3206 3205 3205 3205 3204 3205 3205 3205 3204 3204 3204 3204 3203 3203 3202 3202 3201 3201 3200 3200 3199 3199 3198 3197 3196 3195 3194 3193 3192 3192 3191 3190 3189 3188 3187
3152 3153 3155 3157 3158 3159 3160 3161 3162 3163 3164 3166 3167 3168 3170 3171 3171 3172 3173 3175 3176 3177 3178 3178 3179 3180 3181 3182 3183 3184 3185 3186 3188 3189 3191 3192 3193 3194 3195 3195 3196 3197 3198 3199 3200 3200 3201 3202 3203 3203 3204 3203 3203 3202 3202 3202 3202 3201 3201 3202 3201 3201 3201 3200 3200 3199 3199 3198 3198 3197 3197 3196 3196 3195 3194 3193 3192 3191 3190 3189 3189 3188 3187 3186 3185
3148 3150 3152 3153 3154 3156 3157 3158 3159 3160 3162 3163 3164 3165 3166 3168 3169 3170 3171 3172 3173 3174 3175 3176 3177 3177 3178 3180 3181 3181 3182 3184 3185 3187 3188 3190 3191 3191 3192 3193 3194 3195 3195 3196 3197 3198 3199 3199 3200 3201 3201 3200 3200 3200 3199 3199 3199 3198 3198 3199 3199 3198 3198 3197 3197 3197 3196 3196 3195 3194 3194 3194 3193 3193 3192 3191 3189 3188 3188 3187 3186 3185 3185 3184 3183
3143 3145 3147 3148 3150 3151 3153 3154 3156 3157 3158 3159 3161 3162 3163 3164 3166 3167 3168 3169 3170 3171 3173 3174 3174 3175 3176 3178 3179 3180 3181 3182 3183 3184 3185 3186 3187 3188 3189 3190 3191 3192 3193 3193 3194 3195 3196 3197 3197 3197 3197 3197 3197 3197 3196 3196 3195 3195 3196 3196 3196 3195 3195 3194 3194 3194 3193 3193 3192 3192 3191 3191 3190 3190 3189 3188 3187 3186 3185 3184 3183 3183 3182 3182 3181
3141 3141 3142 3143 3144 3146 3148 3150 3152 3153 3154 3155 3156 3158 3160 3161 3163 3165 3165 3166 3167 3168 3170 3171 3172 3173 3174 3175 3176 3177 3179 3180 3181 3181 3182 3183 3184 3184 3185 3186 3187 3188 3189 3190 3191 3192 3193 3193 3194 3194 3194 3194 3194 3194 3193 3193 3193 3193 3192 3192 3192 3192 3192 3192 3191 3191 3190 3190 3189 3189 3188 3188 3187 3187 3186 3185 3184 3183 3182 3181 3181 3180 3180 3179 3178
3141 3141 3142 3142 3141 3142 3143 3145 3147 3148 3150 3151 3152 3154 3156 3158 3160 3161 3162 3163 3164 3165 3166 3168 3169 3170 3172 3172 3173 3174 3176 3177 3178 3179 3180 3180 3181 3182 3182 3183 3184 3185 3186 3187 3187 3188 3189 3190 3190 3191 3191 3192 3192 3191 3190 3190 3190 3189 3189 3189 3189 3189 3189 3189 3188 3188 3188 3187 3186 3186 3185 3185 3184 3184 3183 3182 3181 3180 3179 3178 3178 3178 3177 3177 3176
3137 3138 3139 3140 3140 3140 3140 3141 3142 3144 3145 3146 3148 3149 3151 3153 3154 3155 3155 3157 3160 3162 3163 3165 3166 3167 3169 3170 3171 3172 3173 3174 3175 3176 3177 3177 3178 3179 3179 3179 3180 3181 3182 3183 3184 3185 3186 3187 3187 3188 3188 3188 3188 3187 3187 3186 3186 3186 3187 3186 3186 3186 3186 3186 3185 3185 3184 3184 3183 3183 3182 3182 3181 3181 3180 3179 3178 3177 3176 3176 3175 3175 3175 3174 3174
3134 3135 3135 3136 3137 3137 3138 3138 3139 3140 3141 3142 3143 3145 3146 3148 3149 3149 3150 3153 3156 3158 3159 3160 3162 3164 3165 3167 3168 3169 3170 3171 3171 3172 3173 3174 3175 3175 3176 3176 3177 3178 3179 3179 3180 3181 3182 3183 3184 3185 3185 3185 3184 3184 3183 3183 3183 3183 3183 3183 3183 3183 3183 3182 3181 3181 3180 3180 3180 3180 3179 3179 3178 3177 3177 3176 3175 3174 3174 3173 3172 3172 3172 3171 3171
3131 3132 3132 3133 3133 3134 3135 3136 3136 3137 3137 3138 3139 3140 3142 3143 3144 3145 3147 3149 3151 3153 3155 3156 3158 3160 3162 3163 3164 3165 3166 3168 3168 3169 3170 3171 3171 3172 3172 3173 3174 3175 3175 3176 3176 3177 3179 3180 3181 3181 3182 3181 3181 3180 3180 3180 3180 3180 3180 3180 3180 3179 3178 3177 3177 3177 3177 3177 3177 3176 3175 3174 3174 3174 3174 3173 3172 3172 3171 3171 3170 3169 3169 3169 3169
3128 3128 3129 3130 3130 3131 3132 3132 3133 3133 3134 3134 3135 3136 3137 3138 3139 3141 3142 3143 3145 3147 3149 3150 3152 3154 3157 3159 3160 3162 3163 3164 3165 3166 3167 3168 3168 3168 3169 3170 3171 3172 3172 3172 3173 3174 3175 3176 3177 3178 3178 3177 3177 3177 3176 3176 3177 3178 3178 3177 3176 3176 3175 3173 3173 3173 3174 3174 3174 3173 3172 3170 3170 3171 3171 3170 3169 3169 3168 3168 3168 3167 3167 3166 3166
3124 3125 3125 3126 3126 3127 3128 3128 3129 3129 3129 3129 3130 3131 3132 3133 3134 3136 3136 3137 3137 3138 3141 3146 3149 3152 3154 3155 3156 3157 3158 3160 3161 3162 3163 3164 3165 3165 3165 3167 3168 3169 3169 3169 3170 3171 3172 3173 3173 3173 3173 3173 3173 3173 3173 3174 3175 3175 3176 3176 3174 3172 3171 3171 3171 3171 3172 3172 3170 3169 3168 3168 3168 3169 3168 3168 3167 3167 3166 3166 3165 3165 3165 3164 3164
3120 3121 3121 3121 3122 3122 3123 3123 3123 3123 3123 3124 3124 3125 3126 3127 3129 3130 3130 3130 3130 3132 3137 3143 3146 3148 3151 3152 3151 3152 3154 3155 3156 3158 3159 3160 3161 3161 3162 3163 3164 3165 3165 3166 3167 3168 3168 3169 3169 3169 3169 3169 3169 3169 3170 3171 3172 3172 3173 3173 3170 3168 3168 3168 3169 3169 3169 3169 3168 3166 3165 3165 3165 3166 3166 3165 3165 3165 3164 3164 3163 3163 3163 3163 3163
3117 3118 3118 3118 3118 3118 3118 3118 3118 3118 3118 3118 3119 3119 3121 3121 3122 3124 3125 3125 3126 3129 3134 3138 3140 3142 3144 3146 3146 3147 3149 3150 3152 3153 3154 3155 3157 3157 3158 3159 3160 3161 3161 3162 3163 3163 3164 3164 3164 3165 3165 3165 3165 3166 3167 3168 3169 3169 3169 3169 3166 3165 3165 3165 3166 3166 3165 3165 3165 3164 3164 3163 3163 3163 3164 3163 3163 3163 3163 3163 3162 3162 3162 3162 3162
3114 3115 3115 3115 3115 3114 3114 3114 3114 3113 3113 3112 3113 3114 3115 3115 3116 3118 3119 3119 3121 3125 3128 3131 3133 3135 3137 3139 3141 3143 3144 3146 3148 3149 3150 3151 3152 3153 3154 3155 3155 3156 3157 3158 3159 3159 3160 3160 3161 3161 3161 3161 3162 3163 3163 3163 3164 3164 3164 3164 3163 3163 3163 3163 3164 3164 3162 3162 3162 3163 3162 3162 3162 3162 3162 3161 3161 3161 3161 3161 3161 3161 3161 3161 3161
3111 3111 3112 3112 3112 3111 3110 3109 3108 3108 3107 3107 3107 3108 3108 3109 3110 3112 3113 3114 3116 3119 3122 3124 3126 3128 3130 3133 3135 3137 3139 3141 3143 3145 3146 3147 3148 3149 3150 3150 3151 3152 3153 3154 3155 3155 3156 3156 3156 3156 3157 3157 3158 3158 3158 3158 3159 3158 3158 3158 3159 3159 3160 3160 3161 3161 3160 3160 3161 3161 3160 3160 3160 3160 3160 3160 3160 3160 3160 3160 3160 3160 3160 3160 3160
3107 3108 3109 3109 3108 3107 3106 3104 3102 3101 3101 3100 3100 3101 3101 3102 3104 3105 3108 3109 3111 3113 3116 3118 3120 3122 3125 3127 3130 3132 3134 3136 3138 3140 3142 3143 3144 3145 3145 3146 3148 3149 3150 3151 3151 3151 3151 3152 3152 3153 3154 3154 3153 3153 3152 3151 3152 3152 3153 3154 3155 3155 3156 3156 3157 3157 3158 3158 3158 3158 3158 3158 3158 3158 3158 3158 3158 3158 3159 3159 3159 3159 3159 3159 3159
3105 3105 3106 3105 3104 3103 3101 3099 3096 3095 3094 3093 3093 3094 3094 3096 3098 3100 3102 3104 3105 3108 3110 3112 3115 3118 3121 3122 3125 3127 3129 3132 3134 3136 3137 3138 3139 3140 3142 3143 3145 3145 3146 3147 3147 3147 3148 3149 3149 3150 3150 3149 3149 3148 3147 3146 3147 3149 3150 3150 3151 3152 3153 3154 3154 3155 3155 3155 3155 3155 3156 3155 3156 3156 3157 3157 3157 3157 3158 3158 3157 3157 3158 3158 3158
3103 3103 3103 3103 3101 3099 3097 3095 3093 3091 3089 3088 3088 3088 3089 3091 3093 3095 3097 3098 3100 3103 3106 3108 3111 3115 3117 3118 3120 3123 3125 3128 3130 3131 3132 3134 3135 3137 3138 3139 3141 3141 3142 3143 3143 3144 3144 3145 3145 3145 3145 3145 3145 3145 3144 3144 3145 3147 3147 3148 3149 3149 3150 3151 3151 3152 3152 3152 3153 3153 3153 3153 3154 3155 3155 3155 3156 3156 3156 3156 3156 3156 3156 3156 3156
3102 3102 3102 3101 3099 3096 3094 3093 3091 3089 3087 3085 3084 3084 3085 3087 3089 3092 3094 3095 3097 3100 3102 3104 3106 3110 3113 3115 3117 3120 3122 3124 3126 3127 3128 3129 3131 3133 3134 3135 3137 3138 3138 3139 3140 3140 3140 3140 3140 3140 3140 3140 3140 3140 3141 3142 3143 3144 3145 3146 3146 3147 3148 3148 3149 3149 3150 3150 3150 3151 3151 3152 3152 3153 3153 3154 3154 3154 3154 3154 3154 3155 3154 3154 3153
3101 3101 3101 3100 3098 3095 3093 3091 3089 3087 3085 3084 3082 3081 3082 3084 3087 3089 3092 3093 3095 3097 3099 3101 3103 3106 3109 3112 3114 3117 3119 3121 3122 3123 3124 3126 3128 3130 3131 3132 3133 3134 3135 3135 3136 3136 3136 3136 3136 3136 3136 3136 3137 3137 3138 3140 3141 3142 3142 3143 3144 3145 3146 3146 3147 3148 3148 3148 3149 3149 3150 3150 3151 3151 3152 3152 3152 3153 3153 3153 3153 3153 3153 3152 3152
3099 3099 3100 3099 3098 3096 3092 3090 3088 3086 3085 3084 3083 3082 3081 3083 3085 3086 3088 3091 3093 3094 3096 3098 3100 3103 3105 3108 3111 3114 3116 3117 3118 3120 3121 3123 3125 3126 3127 3128 3129 3130 3131 3131 3131 3132 3132 3133 3132 3132 3133 3134 3134 3135 3136 3138 3139 3140 3141 3142 3142 3143 3144 3145 3145 3146 3146 3146 3147 3148 3149 3149 3150 3150 3150 3151 3151 3151 3151 3151 3151 3151 3151 3151 3150
3097 3098 3098 3098 3098 3096 3093 3090 3088 3087 3085 3084 3083 3082 3082 3082 3082 3083 3085 3087 3089 3091 3093 3095 3098 3101 3103 3106 3108 3111 3112 3113 3114 3117 3119 3120 3122 3123 3124 3125 3126 3127 3127 3128 3128 3129 3130 3130 3130 3131 3132 3132 3133 3134 3135 3136 3138 3138 3139 3140 3141 3142 3143 3143 3144 3144 3144 3145 3145 3146 3147 3148 3149 3149 3149 3150 3150 3150 3149 3149 3149 3148 3148 3148 3148
3096 3097 3097 3097 3097 3097 3094 3091 3089 3088 3087 3085 3083 3083 3083 3082 3082 3082 3083 3084 3086 3088 3091 3095 3098 3100 3103 3105 3107 3109 3110 3112 3113 3115 3117 3119 3120 3121 3122 3123 3124 3125 3126 3126 3127 3128 3129 3129 3130 3130 3131 3132 3132 3133 3134 3135 3136 3137 3138 3139 3140 3140 3141 3141 3142 3142 3143 3143 3144 3145 3145 3146 3147 3147 3148 3148 3148 3148 3147 3147 3146 3146 3146 3146 3146
3095 3096 3096 3096 3097 3097 3096 3093 3091 3090 3089 3088 3086 3084 3084 3084 3084 3085 3086 3087 3088 3090 3093 3096 3099 3101 3103 3105 3107 3108 3110 3112 3113 3115 3116 3117 3118 3119 3120 3122 3123 3124 3125 3126 3127 3128 3129 3129 3130 3130 3131 3131 3132 3132 3133 3134 3135 3136 3137 3138 3138 3139 3139 3140 3140 3141 3142 3142 3143 3143 3144 3144 3145 3145 3146 3146 3146 3146 3145 3145 3144 3144 3144 3144 3144
3092 3094 3095 3095 3095 3096 3096 3095 3093 3092 3092 3091 3090 3088 3088 3087 3087 3088 3089 3091 3092 3093 3094 3096 3099 3101 3102 3104 3106 3108 3110 3112 3114 3115 3116 3117 3118 3118 3120 3121 3122 3124 3125 3126 3126 3127 3128 3128 3129 3129 3130 3130 3130 3131 3132 3132 3133 3134 3135 3136 3137 3137 3138 3138 3139 3139 3140 3141 3141 3142 3143 3143 3143 3144 3144 3144 3144 3144 3144 3143 3143 3143 3143 3143 3142
3090 3092 3093 3094 3095 3095 3095 3095 3095 3094 3093 3093 3093 3093 3092 3091 3091 3091 3092 3093 3094 3096 3097 3098 3100 3101 3103 3104 3106 3108 3110 3112 3114 3114 3115 3116 3117 3118 3119 3120 3121 3122 3123 3124 3125 3126 3127 3127 3128 3128 3129 3129 3129 3129 3130 3131 3132 3133 3134 3134 3136 3137 3137 3137 3138 3138 3139 3140 3140 3140 3141 3141 3141 3142 3142 3143 3143 3143 3143 3142 3142 3141 3141 3140 3139
3088 3090 3093 3094 3094 3094 3094 3094 3095 3095 3094 3094 3094 3094 3094 3094 3094 3094 3095 3096 3097 3098 3100 3101 3102 3103 3104 3106 3107 3108 3110 3111 3113 3114 3115 3116 3117 3117 3118 3119 3120 3121 3122 3123 3124 3125 3125 3126 3126 3127 3127 3128 3128 3128 3129 3130 3131 3132 3132 3133 3135 3136 3136 3136 3136 3137 3137 3138 3138 3139 3139 3140 3140 3140 3141 3141 3142 3142 3141 3141 3140 3139 3139 3137 3136
3087 3089 3093 3094 3094 3093 3093 3094 3094 3094 3094 3094 3095 3095 3095 3095 3095 3095 3096 3097 3098 3099 3101 3102 3103 3104 3105 3106 3107 3109 3110 3111 3112 3113 3114 3115 3116 3117 3117 3118 3119 3120 3121 3122 3123 3124 3124 3125 3125 3126 3126 3127 3127 3127 3128 3129 3130 3130 3131 3133 3134 3135 3135 3135 3135 3135 3136 3136 3137 3137 3138 3138 3138 3138 3138 3139 3139 3139 3139 3138 3137 3136 3135 3134 3133
3087 3089 3091 3093 3093 3093 3093 3093 3094 3094 3094 3094 3095 3095 3096 3096 3096 3096 3097 3098 3099 3100 3101 3102 3103 3104 3105 3106 3107 3108 3110 3111 3112 3113 3114 3114 3115 3116 3116 3117 3118 3119 3120 3121 3122 3123 3123 3124 3125 3126 3126 3126 3127 3127 3127 3128 3129 3130 3130 3131 3132 3133 3133 3134 3134 3134 3134 3135 3135 3136 3136 3136 3136 3136 3136 3136 3136 3136 3135 3135 3134 3133 3132 3131 3130
3089 3089 3091 3092 3092 3093 3093 3094 3094 3094 3095 3095 3095 3095 3096 3096 3096 3097 3098 3098 3099 3100 3101 3102 3103 3104 3105 3106 3107 3108 3110 3111 3112 3113 3113 3114 3114 3115 3116 3117 3118 3119 3120 3121 3122 3122 3123 3124 3124 3125 3126 3126 3126 3126 3127 3127 3128 3129 3130 3130 3131 3132 3132 3133 3133 3133 3133 3133 3133 3134 3134 3134 3134 3133 3133 3133 3133 3132 3132 3131 3130 3130 3129 3128 3128
3093 3092 3092 3093 3093 3094 3095 3095 3096 3096 3096 3096 3096 3096 3097 3097 3097 3098 3099 3099 3100 3101 3102 3103 3104 3105 3106 3107 3108 3109 3110 3111 3112 3113 3113 3114 3114 3115 3116 3116 3117 3118 3119 3120 3120 3121 3122 3122 3123 3124 3124 3125 3125 3125 3125 3126 3127 3127 3128 3129 3129 3130 3131 3131 3131 3131 3131 3131 3131 3131 3132 3131 3131 3130 3130 3129 3129 3129 3128 3127 3127 3127 3127 3126 3125
3096 3096 3095 3095 3096 3096 3097 3097 3097 3098 3098 3098 3097 3098 3098 3098 3099 3099 3100 3101 3102 3103 3104 3105 3105 3106 3107 3108 3109 3109 3110 3111 3112 3113 3113 3114 3114 3115 3115 3116 3117 3118 3118 3119 3119 3119 3120 3120 3121 3122 3122 3123 3123 3124 3125 3125 3126 3126 3126 3127 3128 3128 3129 3129 3130 3130 3130 3130 3129 3129 3129 3129 3129 3128 3127 3127 3126 3126 3126 3125 3125 3125 3124 3124 3123
3098 3098 3097 3098 3098 3098 3098 3099 3099 3099 3099 3098 3098 3099 3099 3099 3100 3101 3101 3102 3103 3103 3104 3105 3106 3107 3108 3108 3109 3110 3111 3112 3112 3113 3113 3113 3114 3114 3115 3115 3116 3117 3117 3117 3118 3118 3119 3119 3119 3119 3120 3120 3121 3122 3123 3124 3124 3124 3124 3125 3125 3126 3127 3127 3127 3127 3127 3128 3128 3127 3127 3126 3126 3126 3125 3125 3125 3124 3124 3123 3123 3123 3122 3121 3120
3097 3097 3097 3097 3098 3098 3099 3099 3099 3099 3099 3099 3099 3099 3099 3100 3100 3101 3101 3102 3103 3104 3104 3105 3106 3107 3107 3108 3109 3110 3110 3111 3112 3112 3112 3112 3113 3113 3114 3114 3114 3115 3116 3116 3117 3117 3118 3118 3118 3118 3118 3118 3118 3119 3120 3120 3121 3121 3122 3122 3123 3123 3124 3124 3124 3124 3124 3125 3125 3125 3125 3124 3124 3123 3123 3123 3123 3122 3122 3121 3120 3120 3119 3118 3117
3097 3097 3097 3097 3097 3097 3098 3098 3099 3099 3099 3099 3099 3099 3099 3100 3100 3101 3101 3102 3103 3103 3104 3105 3106 3106 3107 3107 3108 3108 3109 3109 3110 3110 3111 3111 3111 3112 3112 3113 3113 3114 3114 3115 3116 3116 3116 3116 3116 3116 3116 3116 3116 3116 3117 3117 3117 3118 3118 3119 3119 3120 3120 3120 3121 3121 3121 3121 3121 3121 3121 3121 3121 3121 3121 3121 3120 3119 3119 3118 3117 3116 3115 3114 3113
3097 3097 3097 3097 3097 3097 3097 3097 3098 3098 3099 3099 3100 3100 3100 3100 3101 3101 3102 3102 3103 3104 3104 3104 3105 3105 3106 3107 3107 3108 3108 3108 3108 3109 3109 3110 3110 3111 3111 3112 3112 3112 3113 3113 3114 3114 3113 3113 3113 3113 3113 3113 3114 3114 3114 3114 3114 3114 3115 3115 3116 3116 3117 3117 3117 3117 3117 3117 3117 3117 3117 3117 3116 3116 3117 3117 3116 3115 3115 3114 3113 3112 3111 3111 3110
3098 3098 3098 3098 3098 3098 3098 3098 3098 3098 3099 3099 3100 3100 3100 3101 3101 3102 3103 3103 3104 3104 3104 3104 3104 3104 3105 3106 3107 3108 3107 3107 3107 3107 3108 3108 3109 3109 3110 3110 3110 3111 3112 3112 3112 3111 3111 3110 3110 3110 3110 3110 3111 3111 3111 3112 3112 3112 3112 3112 3113 3113 3113 3114 3114 3114 3114 3114 3114 3113 3113 3113 3112 3112 3112 3112 3112 3111 3111 3110 3109 3109 3108 3107 3107
3098 3099 3099 3099 3099 3099 3099 3099 3099 3099 3099 3099 3100 3100 3100 3101 3101 3102 3103 3103 3104 3104 3104 3104 3104 3104 3104 3105 3107 3107 3106 3106 3106 3106 3106 3107 3107 3107 3108 3108 3109 3110 3110 3110 3110 3110 3109 3109 3109 3108 3108 3108 3108 3109 3109 3109 3109 3109 3109 3109 3109 3109 3109 3110 3110 3110 3110 3110 3110 3110 3110 3109 3109 3109 3108 3108 3108 3107 3107 3106 3106 3105 3105 3104 3104
3098 3099 3099 3099 3099 3099 3099 3099 3099 3099 3099 3099 3099 3099 3099 3099 3100 3101 3102 3102 3103 3103 3103 3104 3103 3103 3104 3105 3105 3105 3105 3104 3104 3104 3105 3105 3105 3105 3106 3106 3107 3108 3108 3109 3109 3108 3108 3107 3107 3107 3106 3106 3106 3106 3106 3106 3105 3105 3105 3105 3105 3105 3105 3105 3106 3106 3106 3106 3106 3106 3106 3106 3105 3105 3105 3104 3104 3103 3103 3102 3102 3102 3102 3101 3101
3097 3097 3098 3098 3098 3098 3099 3099 3099 3099 3099 3099 3099 3099 3099 3099 3099 3099 3100 3100 3101 3101 3102 3102 3102 3102 3103 3103 3104 3104 3104 3104 3103 3103 3104 3104 3104 3104 3105 3105 3105 3106 3106 3106 3106 3106 3105 3105 3105 3105 3104 3104 3104 3104 3104 3103 3103 3103 3102 3102 3102 3102 3102 3102 3102 3102 3102 3102 3102 3102 3102 3102 3101 3101 3101 3100 3100 3100 3099 3099 3099 3099 3099 3098 3098